Tulsa, OK

1:45 AM CDT on June 25, 2017 (GMT -0500)
Tulsa International

Weather History for KTUL - October, 2014

Change the Weather History Date:

Wednesday, October 15, 2014

  Actual Average Record
Temperature  
Mean Temperature 60 °F 62 °F  
Max Temperature 75 °F 73 °F 91 °F (1963)
Min Temperature 45 °F 51 °F 37 °F (2002)
Degree Days  
Heating Degree Days 5 5  
Month to date heating degree days 48 54  
Since 1 July heating degree days 61 78  
Cooling Degree Days 0 2  
Month to date cooling degree days 70 43  
Year to date cooling degree days 2004 2008  
Growing Degree Days 10 (Base 50)    
Moisture  
Dew Point 42 °F    
Average Humidity 56    
Maximum Humidity 82    
Minimum Humidity 29    
Precipitation  
Precipitation 0.00 in 0.13 in 2.12 in (1941)
Month to date precipitation 3.71 1.87  
Year to date precipitation 24.42 33.61  
Sea Level Pressure  
Sea Level Pressure 30.01 in    
Wind  
Wind Speed 4 mph (WNW)    
Max Wind Speed 14 mph    
Max Gust Speed 18 mph    
Visibility 10 miles    
Events      
T = Trace of Precipitation, MM = Missing Value Source: NWS Daily Summary

Daily Weather History Graph

Daily Weather History Graph

Search for Another Location

Airport or City:

Trip Planner

Search our weather history database for the weather conditions in past years. The results will help you decide how hot, cold, wet, or windy it might be!

Date:

Astronomy

Oct. 15, 2014 Rise Set
Actual Time 7:30 AM CDT 6:47 PM CDT
Civil Twilight 7:04 AM CDT 7:13 PM CDT
Nautical Twilight 6:34 AM CDT 7:43 PM CDT
Astronomical Twilight 6:05 AM CDT 8:12 PM CDT
Moon 12:00 AM CDT (10/15) 2:09 PM CDT (10/15)
Length of Visible Light 12h 08m
Length of Day
11h 16m
Waning Gibbous, 51% of the Moon is Illuminated
Oct 15
Waning Gibbous
Oct 15
Last Quarter
Oct 23
New
Oct 30
First Quarter
Nov 6
Full

Hourly Weather History & Observations

Time (CDT) Temp. Dew Point Humidity Pressure Visibility Wind Dir Wind Speed Gust Speed Precip Events Conditions
12:53 AM 51.1 °F 42.1 °F 71% 30.00 in 10.0 mi WNW 3.5 mph - N/A   Clear
1:53 AM 51.1 °F 41.0 °F 68% 30.01 in 10.0 mi Calm Calm - N/A   Clear
2:53 AM 50.0 °F 41.0 °F 71% 30.01 in 10.0 mi Calm Calm - N/A   Clear
3:53 AM 51.1 °F 41.0 °F 68% 30.00 in 10.0 mi West 4.6 mph - N/A   Clear
4:53 AM 46.9 °F 41.0 °F 80% 30.01 in 10.0 mi West 3.5 mph - N/A   Clear
5:53 AM 46.0 °F 39.9 °F 79% 30.03 in 10.0 mi Calm Calm - N/A   Clear
6:53 AM 46.9 °F 39.9 °F 77% 30.05 in 10.0 mi Calm Calm - N/A   Clear
7:53 AM 46.0 °F 39.9 °F 79% 30.06 in 10.0 mi Calm Calm - N/A   Clear
8:53 AM 52.0 °F 45.0 °F 77% 30.08 in 10.0 mi Calm Calm - N/A   Clear
9:53 AM 57.9 °F 45.0 °F 62% 30.09 in 10.0 mi NNW 4.6 mph - N/A   Clear
10:53 AM 63.0 °F 43.0 °F 48% 30.10 in 10.0 mi NW 4.6 mph - N/A   Clear
11:53 AM 68.0 °F 41.0 °F 37% 30.09 in 10.0 mi Variable 6.9 mph - N/A   Clear
12:53 PM 70.0 °F 39.9 °F 33% 30.06 in 10.0 mi West 8.1 mph - N/A   Clear
1:53 PM 72.0 °F 42.1 °F 34% 30.04 in 10.0 mi WNW 12.7 mph - N/A   Clear
2:53 PM 73.0 °F 41.0 °F 31% 30.00 in 10.0 mi WNW 8.1 mph - N/A   Clear
3:53 PM 73.9 °F 41.0 °F 30% 29.99 in 10.0 mi West 9.2 mph - N/A   Clear
4:53 PM 73.9 °F 39.9 °F 29% 29.97 in 10.0 mi NW 8.1 mph - N/A   Clear
5:53 PM 73.9 °F 42.1 °F 32% 29.96 in 10.0 mi NW 4.6 mph - N/A   Clear
6:53 PM 69.1 °F 42.1 °F 38% 29.95 in 10.0 mi WSW 4.6 mph - N/A   Clear
7:53 PM 60.1 °F 46.0 °F 60% 29.96 in 10.0 mi Calm Calm - N/A   Clear
8:53 PM 57.0 °F 46.9 °F 69% 29.96 in 10.0 mi Calm Calm - N/A   Clear
9:53 PM 55.9 °F 46.9 °F 72% 29.96 in 10.0 mi SSE 3.5 mph - N/A   Clear
10:53 PM 57.0 °F 46.9 °F 69% 29.96 in 10.0 mi Calm Calm - N/A   Clear
11:53 PM 54.0 °F 46.0 °F 75% 29.94 in 10.0 mi South 5.8 mph - N/A   Scattered Clouds